www.pogodaiklimat.ru

Погода и климат >> Архив погоды >> Индонезия >> Пангкалан-Бун


ПОГОДА в Пангкалан-Буне

  • Прогноз погоды в Пангкалан-Буне
  • Монитор погоды в Пангкалан-Буне

АРХИВ ПОГОДЫ в Пангкалан-Буне

Время (UTC), дата Ветер
(напр.,м/с)
 
Видим.   Явления Облачность Т
(С)
Тd
(С)
f
(%)
Тe
(С)
Тes
(С)
Комфортность P
(гПа)
Po
(гПа)
Тmin
(С)
Tmax
(С)
R
(мм)
R24
(мм)
S
(см)
15 13.06 штиль 0 6000 м 9/6 360 м
[Sc As op Ci fib]
+24.6 +23.6 94 +33 +33 очень
душно
1013.0 1009.8
18 13.06 штиль 0 6000 м 9/6 360 м
[Sc As op Ci fib]
+24.4 +23.6 95 +33 +33 очень
душно
1011.4 1008.2
21 13.06 штиль 0 6000 м 9/6 360 м
[Sc As op Ci fib]
+24.2 +23.2 94 +32 +32 очень
душно
1010.0 1006.8
00 14.06 штиль 0 7000 м {дождь} 9/5 360 м
[Sc As op Ci fib]
+24.2 +23.5 96 +33 +34 очень
душно
1011.0 1007.5 +23.4 4
03 14.06 ЮВ 2 10 км 6/4 360 м
[Sc As op Ci fib]
+28.4 +25.2 83 +41 +49 опасность
перегрева
1011.7 1008.5
06 14.06 Ю 3 5000 м слаб. дождь 9/6 300 м
[Cb calv As op Ci fib]
+30.6 +25.5 74 +45 +48 опасность
перегрева
1009.2 1006.0 0.0
09 14.06 штиль 0 5000 м в посл. час дождь 9/6 300 м
[Cb calv As op Ci fib]
+28.4 +26.4 89 +43 +44 опасность
перегрева
1008.0 1004.8 2
12 14.06 В 3 7000 м в посл. час дождь 9/6 330 м
[Sc As op Ci fib]
+25.2 +24.2 94 +35 +35 очень
душно
1009.9 1006.7 +30.8 4
15 14.06 штиль 0 7000 м 9/6 330 м
[Sc As op Ci fib]
+24.8 +24.1 96 +34 +34 очень
душно
1011.0 1007.8
18 14.06 штиль 0 6000 м 9/6 360 м
[Sc As op Ci fib]
+24.8 +24.1 96 +34 +34 очень
душно
1011.0 1007.8
21 14.06 штиль 0 4000 м дымка 9/6 360 м
[Sc As op Ci fib]
+24.8 +24.4 98 +35 +35 очень
душно
1010.8 1007.6
00 15.06 штиль 0 8000 м 9/4 360 м
[Sc As op Ci fib]
+25.4 +24.7 96 +36 +37 очень
душно
1011.5 1008.3 +24.0 5
03 15.06 В 3 9000 м 6/5 360 м
[Sc As op Ci fib]
+29.2 +25.2 79 +42 +48 опасность
перегрева
1012.1 1008.8
06 15.06 В 6 9000 м 6/5 360 м
[Cu med, cong As op Ci fib]
+30.6 +24.9 72 +44 +46 опасность
перегрева
1009.1 1005.9
09 15.06 СЗ 13 5000 м гроза, ливневой дождь 9/6 330 м
[Cb cap As op Ci fib]
+26.2 +24.1 88 +36 +36 очень
душно
1009.2 1005.9 35
12 15.06 штиль 0 6000 м 9/6 360 м
[Sc As op Ci fib]
+25.8 +25.1 96 +37 +37 очень
душно
1010.8 1007.5 +31.0 1
15 15.06 штиль 0 5000 м {дождь} 9/6 360 м
[Cu Sc As op Ci fib]
+25.4 +25.0 98 +36 +36 очень
душно
1011.8 1008.6 0.2
18 15.06 штиль 0 5000 м {дождь} 9/5 360 м
[Sc As op Ci fib]
+24.6 +24.2 98 +34 +34 очень
душно
1011.4 1008.2 0.2
21 15.06 штиль 0 5000 м 9/6 360 м
[Sc diur, vesp As op Ci fib]
+23.8 +23.4 98 +32 +32 очень
душно
1010.0 1006.8
00 16.06 СЗ 2 2500 м дымка {туман} 5/3 360 м
[Sc As op Ci fib]
+24.2 +23.8 98 +33 +34 очень
душно
1011.8 1008.6 +23.8 36
03 16.06 ЮВ 4 10 км 9/6 360 м
[Cu med, cong As op Ci fib]
+29.7 +23.9 71 +41 +44 опасность
перегрева
1012.2 1009.0
06 16.06 Ю 3 8000 м осадки на расстоянии 9/6 360 м
[Cb calv As op Ci fib]
+28.6 +24.8 80 +41 +44 опасность
перегрева
1010.1 1006.8
09 16.06 Ю 3 10 км {дождь} 8/5 360 м
[Sc As op Ci fib]
+27.6 +24.1 81 +38 +39 очень
душно
1009.3 1006.1 0.0
12 16.06 ЮВ 2 10 км {дождь} 6/4 360 м
[Sc As trans Ci fib]
+26.0 +24.2 90 +36 +36 очень
душно
1010.8 1007.5 0.0
15 16.06 штиль 0 9000 м 6/4 360 м
[Sc As trans Ci fib]
+25.4 +24.4 94 +35 +35 очень
душно
1012.4 1009.2
18 16.06 СЗ 5 6000 м 8/5 360 м
[Sc As trans Ci fib]
+24.2 +22.3 89 +31 +31 очень
душно
1012.8 1009.6
21 16.06 В 3 6000 м 6/5 360 м
[Sc As trans Ci fib]
+23.2 +22.8 98 +32 +32 очень
душно
1010.7 1007.4
00 17.06 ЮВ 2 10 км 6/3 360 м
[Sc As op Ci fib]
+25.8 +23.7 88 +35 +37 очень
душно
1011.9 1008.6 +23.4 0.0
03 17.06 В 5 10 км 8/4 360 м
[Sc As op Ci sp]
+30.2 +25.4 76 +44 +48 опасность
перегрева
1011.7 1008.5
06 17.06 Ю 3 9000 м 9/6 330 м
[Cb calv As op Ci fib]
+31.4 +24.2 66 +44 +47 опасность
перегрева
1009.6 1006.4
09 17.06 В 3 10 км 6/4 360 м
[Cu Sc As op Ci fib]
+31.6 +24.3 65 +44 +45 опасность
перегрева
1008.5 1005.3
12 17.06 ЮВ 2 6000 м 6/4 360 м
[Sc As op Ci fib]
+27.6 +23.8 80 +38 +38 очень
душно
1011.0 1007.8 +31.6
15 17.06 ЮВ 2 6000 м 6/4 360 м
[Sc As op Ci fib]
+25.8 +23.7 88 +35 +35 очень
душно
1012.1 1008.8
18 17.06 штиль 0 6000 м 6/4 360 м
[Sc As op Ci fib]
+25.3 +23.9 92 +35 +35 очень
душно
1011.3 1008.1
21 17.06 штиль 0 6000 м 6/4 360 м
[Sc As op Ci fib]
+24.4 +23.4 94 +33 +33 очень
душно
1010.7 1007.5
00 18.06 В 2 9000 м 5/4 360 м
[Sc As op Ci fib]
+25.6 +24.4 93 +36 +37 очень
душно
1011.7 1008.4 +24.4
03 18.06 В 4 10 км 6/5 360 м
[Sc As op Ci fib]
+29.2 +24.2 74 +41 +45 опасность
перегрева
1011.3 1008.0
06 18.06 В 4 7000 м осадки на расстоянии 8/6 360 м
[Cb calv As op Ci fib]
+30.8 +24.2 68 +43 +46 опасность
перегрева
1009.2 1006.0
09 18.06 ЮВ 4 10 км 9/6 330 м
[Cb calv As op Ci fib]
+29.0 +24.7 78 +41 +42 опасность
перегрева
1008.7 1005.4
12 18.06 ЮВ 2 8000 м 9/6 360 м
[Sc As op Ci fib]
+27.0 +24.6 87 +38 +38 очень
душно
1009.9 1006.7 +24.6
15 18.06 штиль 0 7000 м 9/6 360 м
[Sc As trans Ci fib]
+26.0 +24.5 91 +36 +36 очень
душно
1011.1 1007.8
18 18.06 штиль 0 5000 м 9/6 360 м
[Sc Ac trans Ci fib]
+25.2 +24.2 94 +35 +35 очень
душно
1010.8 1007.6
21 18.06 штиль 0 5000 м 9/6 360 м
[Sc Ac trans Ci fib]
+24.5 +23.7 95 +33 +33 очень
душно
1011.4 1008.2
00 19.06 СЗ 3 <100 м дождь 10/9 210 м
[Cb calv As op]
+23.2 +22.5 96 +32 +32 очень
душно
1013.0 1009.7 +23.2 14
03 19.06 З 2 3000 м слаб. дождь 10/9 210 м
[Sc As op]
+23.6 +23.2 98 +32 +32 очень
душно
1013.5 1010.3 31
06 19.06 Ю 3 5000 м слаб. дождь 10/9 210 м
[Sc As op]
+24.4 +23.7 96 +33 +33 очень
душно
1010.7 1007.5 2
09 19.06 ЮВ 3 8000 м {дождь} 9/9 210 м
[]
+26.0 +23.0 84 +35 +35 очень
душно
1008.4 1005.1 0.0
12 19.06 штиль 0 7000 м 9/6 210 м
[Sc As op Ci fib]
+24.6 +23.6 94 +33 +33 очень
душно
1010.4 1007.2 +27.0 0.0
15 19.06 штиль 0 6000 м 9/6 300 м
[Sc As op Ci fib]
+23.8 +23.1 96 +32 +32 очень
душно
1012.3 1009.1
18 19.06 штиль 0 6000 м 9/6 360 м
[Sc As op Ci fib]
+23.8 +23.1 96 +32 +32 очень
душно
1011.7 1008.5
21 19.06 штиль 0 6000 м 9/6 300 м
[Sc As op Ci fib]
+23.8 +23.1 96 +32 +32 очень
душно
1010.7 1007.5
00 20.06 штиль 0 7000 м 8/5 360 м
[Sc As op Ci sp]
+24.0 +23.3 96 +32 +33 очень
душно
1012.1 1008.9 +23.0
03 20.06 ЮВ 4 10 км 9/6 360 м
[Cu hum As op Ci fib]
+28.4 +23.4 74 +38 +41 очень
душно
1012.0 1008.8
06 20.06 В 3 10 км 9/6 330 м
[Cu med, cong As op Ci fib]
+30.0 +23.6 69 +41 +45 опасность
перегрева
1010.0 1006.8
09 20.06 штиль 0 10 км 9/6 330 м
[Cu med, cong As op Ci fib]
+29.4 +25.1 78 +43 +44 опасность
перегрева
1008.5 1005.2
12 20.06 ЮВ 2 6000 м 9/6 330 м
[Cu med, cong As op Ci fib]
+26.4 +24.6 90 +37 +37 очень
душно
1009.7 1006.4 +30.8

 

Местоположение метеостанции Пангкалан-Бун (Индонезия): широта -2.70 долгота 111.70 высота над уровнем моря 25 м.

В архиве по умолчанию представлена погода в Пангкалан-Буне за последнюю неделю. Архивные данные за месяц целиком и за предыдущие месяцы, начиная с января 2011 года, Вы можете получить, выбрав интересующий диапазон дат из раскрывающегося списка и нажав кнопку "Ввод!".


*Определитесь, кто Вы:
робот инопланетянин человек

Внимание! Время в таблицах - всемирное. Для получения местного времени необходимо прибавить поправку, которая равна 7 ч.

Смотрите также архив погоды в соседних городах и на ближайших метеорологических станциях:

Погода в Кетапанге (Индонезия) (215 км)
Погода в Нангапинохе (Индонезия) (262 км)
Погода в Синтанге (Индонезия) (314 км)
Погода в Паоанкарая (Индонезия) (318 км)
Погода в Банджармасине (Индонезия) (348 км)
Погода в Сангкапуре (Индонезия) (365 км)
Погода в Понтианаке (Индонезия) (382 км)
Погода в Муаратевехе (Индонезия) (406 км)
Погода на Путусиббау (Индонезия) (417 км)
Погода в Танджунгпандане (Индонезия) (439 км)

Пояснения к столбцам:

Ветер - указаны скорость ветра в м/с - средняя за 10 мин, порывы в срок и между сроками (в фигурных скобках) и направление, откуда дует ветер: С - северный, СВ - северо-восточный, В - восточный, ЮВ - юго-восточный, Ю - южный, ЮЗ - юго-западный, З - западный, СЗ - северо-западный.
Видимость - горизонтальная дальность видимости в метрах или километрах. При видимости от 1 до 10 км при отсутствии осадков обычно наблюдается дымка, при ухудшении видимости до 1 км и менее - туман. В сухую погоду видимость может ухудшаться дымом, пылью или мглою.
Явления - указаны атмосферные явления, наблюдавшиеся в срок или в последний час перед сроком; фигурными скобками обозначены явления, наблюдавшиеся между сроками (за 1-3 часа до срока); квадратными скобками обозначены град или гололедные отложения с указанием их диаметра в мм.
Облачность - указаны через наклонную черту общая и нижняя облачность в баллах и высота нижней границы облаков в метрах; квадратными скобками обозначены формы облаков: Ci - перистые, Cs - перисто-слоистые, Cc - перисто-кучевые, Ac - высококучевые, As - высокослоистые, Sc - слоисто-кучевые, Ns - слоисто-дождевые, Cu - кучевые, Cb - кучево-дождевые. Подробнее классификацию облаков см. в Атласе облаков (PDF).
T - Температура воздуха - температура, измеренная на высоте 2 м над землей.
Td - Температура точки росы - температура, при понижении до которой содержащийся в воздухе водяной пар достигнет насыщения.
f - Относительная влажность воздуха - влажноcть воздуха, измеренная на высоте 2 м над землей.
Te - Эффективная температура - температура, которую ощущает одетый по сезону человек в тени. Характеристика душности погоды. При расчете учитывается влияние влажности воздуха и скорости ветра на теплоощущения человека.
Tes - Эффективная температура на солнце - температура, которую ощущает человек, с поправкой на солнечный нагрев. Характеристика знойности погоды. Зависит от высоты солнца над горизонтом, облачности и скорости ветра. Ночью, в пасмурную погоду, а также при ветре 12 м/с и более поправка равна нулю.
P - Атмосферное давление - приведенное к уровню моря атмосферное давление.
Po - Атмосферное давление - измеренное на уровне метеостанции атмосферное давление.
Tmin - Минимальная температура - минимум температуры воздуха на высоте 2 м над землей.
Tmax - Максимальная температура - максимум температуры воздуха на высоте 2 м над землей.
R - Количество осадков - Количество выпавших осадков за период времени, мм. При наведении курсора мыши на число - период времени, за который выпало указанное количество осадков.
R24 - Количество осадков - Количество выпавших осадков за 24 часа, мм.
S - Снежный покров - Высота снежного покрова, см. При наведении курсора мыши на число - состояние снежного покрова и степень покрытия местности в баллах.